TimeMDT,TemperatureF,Dew PointF,Humidity,Sea Level PressureIn,VisibilityMPH,Wind Direction,Wind SpeedMPH,Gust SpeedMPH,PrecipitationIn,Events,Conditions,WindDirDegrees,DateUTC
12:15 AM,77.0,50.0,39,30.02,10.0,North,-9999.0,-,N/A,,Overcast,0,2013-09-03 06:15:00
12:35 AM,73.4,51.8,47,30.02,10.0,North,-9999.0,-,N/A,,Scattered Clouds,0,2013-09-03 06:35:00
12:55 AM,71.6,53.6,53,30.02,10.0,Calm,Calm,-,N/A,,Clear,0,2013-09-03 06:55:00
1:15 AM,71.6,53.6,53,30.02,10.0,Calm,Calm,-,N/A,,Scattered Clouds,0,2013-09-03 07:15:00
1:35 AM,71.6,53.6,53,30.02,10.0,Calm,Calm,-,N/A,,Scattered Clouds,0,2013-09-03 07:35:00
1:55 AM,71.6,53.6,53,30.03,10.0,North,-9999.0,-,N/A,,Scattered Clouds,0,2013-09-03 07:55:00
2:15 AM,71.6,53.6,53,30.02,10.0,North,-9999.0,-,N/A,,Clear,0,2013-09-03 08:15:00
2:35 AM,71.6,53.6,53,30.03,10.0,Calm,Calm,-,N/A,,Mostly Cloudy,0,2013-09-03 08:35:00
2:55 AM,73.4,53.6,50,30.03,10.0,North,-9999.0,-,N/A,,Overcast,0,2013-09-03 08:55:00
3:15 AM,73.4,51.8,47,30.03,10.0,Calm,Calm,-,N/A,,Mostly Cloudy,0,2013-09-03 09:15:00
3:35 AM,73.4,51.8,47,30.03,10.0,North,-9999.0,-,N/A,,Scattered Clouds,0,2013-09-03 09:35:00
3:55 AM,71.6,53.6,53,30.03,10.0,Calm,Calm,-,N/A,,Mostly Cloudy,0,2013-09-03 09:55:00
4:15 AM,71.6,53.6,53,30.03,10.0,North,-9999.0,-,N/A,,Scattered Clouds,0,2013-09-03 10:15:00
4:35 AM,71.6,53.6,53,30.02,10.0,North,-9999.0,-,N/A,,Scattered Clouds,0,2013-09-03 10:35:00
4:55 AM,71.6,53.6,53,30.03,10.0,North,-9999.0,-,N/A,,Mostly Cloudy,0,2013-09-03 10:55:00
5:15 AM,71.6,51.8,50,30.02,10.0,North,-9999.0,-,N/A,,Overcast,0,2013-09-03 11:15:00
5:35 AM,71.6,51.8,50,30.03,10.0,North,-9999.0,-,N/A,,Mostly Cloudy,0,2013-09-03 11:35:00
5:55 AM,71.6,53.6,53,30.03,10.0,SSW,4.6,-,N/A,,Mostly Cloudy,200,2013-09-03 11:55:00
6:15 AM,71.6,53.6,53,30.03,10.0,South,4.6,-,N/A,,Scattered Clouds,170,2013-09-03 12:15:00
6:35 AM,71.6,53.6,53,30.03,10.0,North,-9999.0,-,N/A,,Scattered Clouds,0,2013-09-03 12:35:00
6:55 AM,73.4,51.8,47,30.04,10.0,North,-9999.0,-,N/A,,Clear,0,2013-09-03 12:55:00
7:15 AM,71.6,53.6,53,30.04,10.0,Calm,Calm,-,N/A,,Scattered Clouds,0,2013-09-03 13:15:00
7:35 AM,69.8,55.4,60,30.05,10.0,Calm,Calm,-,N/A,,Overcast,0,2013-09-03 13:35:00
7:55 AM,69.8,55.4,60,30.06,10.0,Calm,Calm,-,N/A,,Overcast,0,2013-09-03 13:55:00
8:15 AM,71.6,57.2,60,30.06,10.0,Calm,Calm,-,N/A,,Overcast,0,2013-09-03 14:15:00
8:35 AM,71.6,57.2,60,30.06,10.0,Calm,Calm,-,N/A,,Mostly Cloudy,0,2013-09-03 14:35:00
8:55 AM,71.6,57.2,60,30.06,10.0,Calm,Calm,-,N/A,,Scattered Clouds,0,2013-09-03 14:55:00
9:15 AM,73.4,55.4,53,30.06,10.0,Calm,Calm,-,N/A,,Scattered Clouds,0,2013-09-03 15:15:00
9:35 AM,77.0,55.4,47,30.06,10.0,Calm,Calm,-,N/A,,Clear,0,2013-09-03 15:35:00
9:55 AM,78.8,55.4,44,30.06,10.0,SW,3.5,-,N/A,,Clear,220,2013-09-03 15:55:00
10:15 AM,78.8,55.4,44,30.06,10.0,NW,3.5,-,N/A,,Clear,310,2013-09-03 16:15:00
10:35 AM,80.6,55.4,42,30.06,10.0,Calm,Calm,-,N/A,,Clear,0,2013-09-03 16:35:00
10:55 AM,82.4,55.4,39,30.06,10.0,NW,3.5,-,N/A,,Clear,320,2013-09-03 16:55:00
11:15 AM,82.4,55.4,39,30.06,10.0,North,3.5,-,N/A,,Clear,350,2013-09-03 17:15:00
11:35 AM,84.2,53.6,35,30.06,10.0,Calm,Calm,-,N/A,,Clear,0,2013-09-03 17:35:00
11:55 AM,86.0,53.6,33,30.06,10.0,North,6.9,-,N/A,,Clear,360,2013-09-03 17:55:00
12:15 PM,87.8,53.6,31,30.06,10.0,North,-9999.0,-,N/A,,Clear,0,2013-09-03 18:15:00
12:35 PM,86.0,53.6,33,30.06,10.0,North,-9999.0,-,N/A,,Clear,0,2013-09-03 18:35:00
12:55 PM,87.8,53.6,31,30.06,10.0,North,-9999.0,-,N/A,,Clear,0,2013-09-03 18:55:00
1:15 PM,87.8,53.6,31,30.05,10.0,North,-9999.0,-,N/A,,Clear,0,2013-09-03 19:15:00
1:35 PM,87.8,53.6,31,30.05,10.0,North,-9999.0,-,N/A,,Clear,0,2013-09-03 19:35:00
1:55 PM,87.8,53.6,31,30.05,10.0,North,-9999.0,-,N/A,,Clear,0,2013-09-03 19:55:00
2:15 PM,87.8,53.6,31,30.05,10.0,NNE,5.8,-,N/A,,Clear,20,2013-09-03 20:15:00
2:35 PM,87.8,53.6,31,30.04,10.0,East,6.9,-,N/A,,Clear,80,2013-09-03 20:35:00
2:55 PM,89.6,53.6,29,30.04,10.0,ENE,8.1,-,N/A,,Clear,70,2013-09-03 20:55:00
3:15 PM,87.8,55.4,33,30.04,10.0,North,-9999.0,-,N/A,,Clear,0,2013-09-03 21:15:00
3:35 PM,87.8,55.4,33,30.05,10.0,North,-9999.0,-,N/A,,Clear,0,2013-09-03 21:35:00
3:55 PM,87.8,53.6,31,30.05,10.0,NE,6.9,-,N/A,,Clear,50,2013-09-03 21:55:00
4:15 PM,87.8,53.6,31,30.05,10.0,North,-9999.0,-,N/A,,Clear,0,2013-09-03 22:15:00
4:35 PM,87.8,53.6,31,30.05,10.0,NE,5.8,-,N/A,,Clear,40,2013-09-03 22:35:00
4:55 PM,87.8,55.4,33,30.06,10.0,East,9.2,-,N/A,,Clear,80,2013-09-03 22:55:00
5:15 PM,86.0,55.4,35,30.06,10.0,North,-9999.0,-,N/A,,Clear,0,2013-09-03 23:15:00
5:35 PM,86.0,55.4,35,30.07,10.0,North,-9999.0,-,N/A,,Clear,0,2013-09-03 23:35:00
5:55 PM,86.0,55.4,35,30.07,10.0,North,-9999.0,-,N/A,,Clear,0,2013-09-03 23:55:00
6:15 PM,82.4,55.4,39,30.07,10.0,North,-9999.0,-,N/A,,Clear,0,2013-09-04 00:15:00
6:35 PM,82.4,55.4,39,30.07,10.0,North,-9999.0,-,N/A,,Clear,0,2013-09-04 00:35:00
6:55 PM,80.6,57.2,45,30.07,10.0,North,-9999.0,-,N/A,,Clear,0,2013-09-04 00:55:00
7:15 PM,78.8,57.2,47,30.07,10.0,North,-9999.0,-,N/A,,Clear,0,2013-09-04 01:15:00
7:35 PM,78.8,57.2,47,30.08,10.0,North,-9999.0,-,N/A,,Clear,0,2013-09-04 01:35:00
7:55 PM,77.0,57.2,50,30.08,10.0,North,-9999.0,-,N/A,,Clear,0,2013-09-04 01:55:00
8:15 PM,77.0,55.4,47,30.08,10.0,North,-9999.0,-,N/A,,Clear,0,2013-09-04 02:15:00
8:35 PM,75.2,57.2,53,30.09,10.0,North,-9999.0,-,N/A,,Scattered Clouds,0,2013-09-04 02:35:00
8:55 PM,73.4,57.2,57,30.10,10.0,North,-9999.0,-,N/A,,Clear,0,2013-09-04 02:55:00
9:15 PM,73.4,59.0,61,30.11,10.0,North,-9999.0,-,N/A,,Clear,0,2013-09-04 03:15:00
9:35 PM,73.4,59.0,61,30.11,10.0,East,6.9,-,N/A,,Clear,90,2013-09-04 03:35:00
9:55 PM,73.4,59.0,61,30.11,10.0,North,-9999.0,-,N/A,,Clear,0,2013-09-04 03:55:00
10:15 PM,73.4,57.2,57,30.12,10.0,North,-9999.0,-,N/A,,Clear,0,2013-09-04 04:15:00
10:35 PM,73.4,57.2,57,30.12,10.0,North,-9999.0,-,N/A,,Clear,0,2013-09-04 04:35:00
10:55 PM,71.6,57.2,60,30.12,10.0,Calm,Calm,-,N/A,,Clear,0,2013-09-04 04:55:00
11:15 PM,71.6,57.2,60,30.12,10.0,North,-9999.0,-,N/A,,Clear,0,2013-09-04 05:15:00
11:35 PM,69.8,57.2,64,30.12,10.0,North,-9999.0,-,N/A,,Clear,0,2013-09-04 05:35:00
11:55 PM,69.8,57.2,64,30.12,10.0,North,-9999.0,-,N/A,,Clear,0,2013-09-04 05:55:00